Caldwell, ID

10:11 PM MST on December 15, 2019 (GMT -0700)
Caldwell Industrial

Weather History for KEUL - November, 2019

Change the Weather History Date:

Saturday, November 16, 2019

  Actual Average (WUND) Record (WUND)
Temperature  
Mean Temperature 44 °F -  
Max Temperature 55 °F - - (-1)
Min Temperature 32 °F - - (-1)
Degree Days  
Heating Degree Days 20    
Moisture  
Dew Point 32 °F    
Average Humidity 64    
Maximum Humidity 83    
Minimum Humidity 39    
Precipitation  
Precipitation 0.00 in - - ()
Sea Level Pressure  
Sea Level Pressure 30.34 in    
Wind  
Wind Speed 4 mph ()    
Max Wind Speed 15 mph    
Max Gust Speed -    
Visibility 9.5 miles    
Events      
Averages and records for this station are not official NWS values.
T = Trace of Precipitation, MM = Missing Value Source: Averaged Metar Reports

Daily Weather History Graph

Daily Weather History Graph

Search for Another Location

Airport or City:

Astronomy

Nov. 16, 2019 Rise Set
Actual Time 7:41 AM MST 5:20 PM MST
Civil Twilight 7:10 AM MST 5:51 PM MST
Nautical Twilight 6:35 AM MST 6:26 PM MST
Astronomical Twilight 6:01 AM MST 7:00 PM MST
Moon 8:54 PM MST 11:43 AM MST
Length of Visible Light 10h 40m
Length of Day
9h 38m
Waning Gibbous, 82% of the Moon is Illuminated
Nov 16
Waning Gibbous
Nov 19
Last Quarter
Nov 26
New
Dec 3
First Quarter
Dec 11
Full

Hourly Weather History & Observations

Time (MST) Temp. Windchill Dew Point Humidity Pressure Visibility Wind Dir Wind Speed Gust Speed Precip Events Conditions
12:56 AM 39.9 °F - 33.1 °F 77% 30.25 in 8.0 mi Calm Calm - N/A   Scattered Clouds
1:56 AM 41.0 °F 37.1 °F 34.0 °F 76% 30.25 in 8.0 mi SW 5.8 mph - N/A   Overcast
2:56 AM 39.0 °F 34.8 °F 32.0 °F 76% 30.26 in 9.0 mi ENE 5.8 mph - N/A   Overcast
3:56 AM 39.9 °F - 33.1 °F 77% 30.29 in 9.0 mi Calm Calm - N/A   Overcast
4:56 AM 41.0 °F 38.0 °F 35.1 °F 79% 30.29 in 10.0 mi WSW 4.6 mph - N/A   Overcast
5:56 AM 43.0 °F 38.2 °F 37.0 °F 80% 30.32 in 10.0 mi West 8.1 mph - N/A   Overcast
6:56 AM 37.9 °F 31.5 °F 33.1 °F 83% 30.35 in 10.0 mi West 9.2 mph - N/A   Clear
7:56 AM 39.9 °F 37.8 °F 35.1 °F 83% 30.36 in 10.0 mi West 3.5 mph - N/A   Clear
8:56 AM 41.0 °F - 35.1 °F 79% 30.38 in 10.0 mi Calm Calm - N/A   Clear
9:56 AM 46.0 °F 43.1 °F 35.1 °F 66% 30.38 in 10.0 mi West 5.8 mph - N/A   Clear
10:56 AM 50.0 °F - 34.0 °F 54% 30.39 in 10.0 mi West 11.5 mph - N/A   Clear
11:56 AM 53.1 °F - 33.1 °F 47% 30.38 in 10.0 mi West 15.0 mph - N/A   Clear
12:56 PM 54.0 °F - 34.0 °F 47% 30.36 in 10.0 mi West 6.9 mph - N/A   Clear
1:56 PM 55.0 °F - 32.0 °F 42% 30.34 in 10.0 mi WSW 10.4 mph - N/A   Clear
2:56 PM 55.9 °F - 32.0 °F 40% 30.33 in 10.0 mi West 8.1 mph - N/A   Clear
3:56 PM 55.9 °F - 30.9 °F 39% 30.33 in 10.0 mi WNW 8.1 mph - N/A   Clear
4:56 PM 54.0 °F - 30.9 °F 41% 30.33 in 10.0 mi NNW 5.8 mph - N/A   Clear
5:56 PM 48.9 °F - 30.9 °F 50% 30.33 in 10.0 mi North 3.5 mph - N/A   Clear
6:56 PM 46.9 °F - 30.9 °F 54% 30.36 in 10.0 mi Calm Calm - N/A   Clear
7:56 PM 41.0 °F 39.0 °F 30.0 °F 65% 30.37 in 10.0 mi NNW 3.5 mph - N/A   Clear
8:56 PM 39.0 °F - 30.0 °F 70% 30.38 in 8.0 mi Calm Calm - N/A   Clear
9:56 PM 36.0 °F - 26.1 °F 67% 30.39 in 10.0 mi Calm Calm - N/A   Clear
10:56 PM 34.0 °F - 27.0 °F 75% 30.39 in 10.0 mi Calm Calm - N/A   Clear
11:56 PM 32.0 °F 26.4 °F 26.1 °F 79% 30.38 in 7.0 mi NE 5.8 mph - N/A   Clear